Fullerton, CA

10:17 AM PDT on July 24, 2017 (GMT -0700)
Fullerton Municipal

Weather History for KFUL - November, 2014

Change the Weather History Date:

Monday, November 3, 2014

  Actual Average Record
Temperature  
Mean Temperature 63 °F 64 °F  
Max Temperature 76 °F 76 °F 99 °F (2010)
Min Temperature 49 °F 53 °F 46 °F (2002)
Degree Days  
Heating Degree Days 2 2  
Month to date heating degree days 8 6  
Since 1 July heating degree days 8 30  
Cooling Degree Days 0 1  
Month to date cooling degree days 0 5  
Year to date cooling degree days 2048 1236  
Growing Degree Days 12 (Base 50)    
Moisture  
Dew Point 42 °F    
Average Humidity 52    
Maximum Humidity 83    
Minimum Humidity 20    
Precipitation  
Precipitation 0.00 in 0.05 in 0.05 in (2003)
Month to date precipitation 0.25 0.17  
Year to date precipitation 4.00 10.90  
Since 1 July precipitation 0.54  
Snow  
Snow 0.00 in - - ()
Month to date snowfall 0.0  
Year to date snowfall 0.0  
Snow Depth 0.00 in    
Sea Level Pressure  
Sea Level Pressure 30.10 in    
Wind  
Wind Speed 2 mph (NW)    
Max Wind Speed 9 mph    
Max Gust Speed 13 mph    
Visibility 10 miles    
Events      
T = Trace of Precipitation, MM = Missing Value Source: NWS Daily Summary

Daily Weather History Graph

Daily Weather History Graph

Search for Another Location

Airport or City:

Trip Planner

Search our weather history database for the weather conditions in past years. The results will help you decide how hot, cold, wet, or windy it might be!

Date:

Astronomy

Nov. 03, 2014 Rise Set
Actual Time 6:13 AM PST 4:57 PM PST
Civil Twilight 5:47 AM PST 5:23 PM PST
Nautical Twilight 5:17 AM PST 5:52 PM PST
Astronomical Twilight 4:48 AM PST 6:22 PM PST
Moon 3:00 PM PST (11/3) 2:39 AM PST (11/3)
Length of Visible Light 11h 36m
Length of Day
10h 44m
Waxing Gibbous, 88% of the Moon is Illuminated
Nov 3
Waxing Gibbous
Nov 6
Full
Nov 14
Last Quarter
Nov 22
New
Nov 29
First Quarter

Hourly Weather History & Observations

Time (PST) Temp. Dew Point Humidity Pressure Visibility Wind Dir Wind Speed Gust Speed Precip Events Conditions
12:53 AM 53.1 °F 46.9 °F 80% 30.06 in 10.0 mi Calm Calm - N/A   Clear
1:53 AM 53.1 °F 46.0 °F 77% 30.07 in 10.0 mi Calm Calm - N/A   Clear
2:53 AM 52.0 °F 46.0 °F 80% 30.07 in 10.0 mi East 4.6 mph - N/A   Clear
3:53 AM 51.1 °F 45.0 °F 80% 30.08 in 10.0 mi Calm Calm - N/A   Clear
4:53 AM 51.1 °F 45.0 °F 80% 30.09 in 10.0 mi Calm Calm - N/A   Clear
5:53 AM 50.0 °F 45.0 °F 83% 30.11 in 10.0 mi Calm Calm - N/A   Clear
6:53 AM 55.0 °F 45.0 °F 69% 30.12 in 10.0 mi Calm Calm - N/A   Clear
7:53 AM 59.0 °F 46.9 °F 64% 30.14 in 10.0 mi NNW 3.5 mph - N/A   Clear
8:53 AM 64.0 °F 46.0 °F 52% 30.14 in 10.0 mi WNW 3.5 mph - N/A   Clear
9:53 AM 70.0 °F 39.0 °F 32% 30.14 in 10.0 mi SW 4.6 mph - N/A   Clear
10:53 AM 73.9 °F 30.9 °F 21% 30.14 in 10.0 mi Calm Calm - N/A   Clear
11:53 AM 73.9 °F 33.1 °F 22% 30.11 in 10.0 mi North 3.5 mph - N/A   Clear
12:53 PM 75.0 °F 35.1 °F 23% 30.09 in 10.0 mi Variable 5.8 mph - N/A   Clear
1:53 PM 75.9 °F 33.1 °F 21% 30.08 in 10.0 mi Variable 5.8 mph - N/A   Clear
2:53 PM 75.0 °F 34.0 °F 22% 30.07 in 10.0 mi North - - N/A   Clear
3:53 PM 73.0 °F 34.0 °F 24% 30.07 in 10.0 mi Variable 5.8 mph - N/A   Clear
4:53 PM 70.0 °F 42.1 °F 36% 30.08 in 10.0 mi SW 4.6 mph - N/A   Clear
5:53 PM 66.9 °F 41.0 °F 39% 30.09 in 10.0 mi Calm Calm - N/A   Clear
6:53 PM 64.0 °F 44.1 °F 48% 30.10 in 10.0 mi Calm Calm - N/A   Clear
7:53 PM 63.0 °F 46.0 °F 54% 30.10 in 10.0 mi East 5.8 mph - N/A   Clear
8:53 PM 60.1 °F 45.0 °F 57% 30.12 in 10.0 mi Calm Calm - N/A   Clear
9:53 PM 59.0 °F 43.0 °F 55% 30.13 in 10.0 mi Calm Calm - N/A   Clear
10:53 PM 55.9 °F 44.1 °F 64% 30.13 in 10.0 mi Calm Calm - N/A   Clear
11:53 PM 55.0 °F 44.1 °F 67% 30.14 in 10.0 mi Calm Calm - N/A   Clear